| time (UTC) | temp C | wind direction | speed KPH | gust KPH | rain 1hr cm | rain 24hr cm | rain mn cm | humidity % | barometer mb |
| 20260510233533 | 10 | 90 | 0.0 | 3.2 | 0.00 | 0.51 | 0.00 | 83 | 1009.0 |
| 20260510233032 | 10 | 90 | 1.6 | 3.2 | 0.00 | 0.51 | 0.00 | 83 | 1009.2 |
| 20260510232532 | 10 | 90 | 0.0 | 3.2 | 0.00 | 0.61 | 0.00 | 83 | 1009.1 |
| 20260510232032 | 10 | 90 | 1.6 | 4.8 | 0.00 | 0.61 | 0.00 | 83 | 1009.0 |
| 20260510231531 | 10 | 90 | 3.2 | 4.8 | 0.00 | 0.61 | 0.00 | 83 | 1009.0 |
| 20260510231031 | 10 | 112 | 3.2 | 3.2 | 0.00 | 0.61 | 0.00 | 82 | 1009.2 |
| 20260510230531 | 11 | 112 | 0.0 | 1.6 | 0.00 | 0.61 | 0.00 | 82 | 1009.2 |
| 20260510230031 | 11 | 112 | 0.0 | 3.2 | 0.00 | 0.61 | 0.00 | 81 | 1009.3 |
| 20260510225530 | 11 | 112 | 0.0 | 1.6 | 0.00 | 0.61 | 0.00 | 81 | 1009.4 |
| 20260510225030 | 11 | 112 | 0.0 | 1.6 | 0.00 | 0.61 | 0.00 | 80 | 1009.5 |
| 20260510224530 | 11 | 112 | 0.0 | 0.0 | 0.00 | 0.61 | 0.00 | 80 | 1009.5 |
| 20260510224029 | 11 | 112 | 0.0 | 1.6 | 0.00 | 0.61 | 0.00 | 80 | 1009.7 |
| 20260510223529 | 11 | 112 | 1.6 | 3.2 | 0.00 | 0.61 | 0.00 | 80 | 1009.9 |
| 20260510223029 | 11 | 112 | 0.0 | 1.6 | 0.00 | 0.61 | 0.00 | 80 | 1009.8 |
| 20260510222529 | 11 | 112 | 0.0 | 0.0 | 0.00 | 0.71 | 0.00 | 80 | 1009.7 |
| 20260510222028 | 11 | 112 | 0.0 | 3.2 | 0.00 | 0.71 | 0.00 | 79 | 1009.7 |
| 20260510221528 | 11 | 112 | 3.2 | 4.8 | 0.00 | 0.71 | 0.00 | 79 | 1009.9 |
| 20260510221028 | 11 | 112 | 0.0 | 3.2 | 0.00 | 0.71 | 0.00 | 79 | 1009.7 |
| 20260510220527 | 11 | 112 | 0.0 | 0.0 | 0.00 | 0.71 | 0.00 | 78 | 1009.6 |
| 20260510220027 | 11 | 112 | 0.0 | 0.0 | 0.00 | 0.71 | 0.00 | 78 | 1009.8 |
| 20260510215527 | 11 | 112 | 0.0 | 3.2 | 0.00 | 0.71 | 0.00 | 78 | 1009.7 |
| 20260510215026 | 11 | 112 | 1.6 | 3.2 | 0.00 | 0.71 | 0.00 | 78 | 1009.7 |
| 20260510214526 | 11 | 112 | 0.0 | 1.6 | 0.00 | 0.71 | 0.00 | 77 | 1009.6 |
| 20260510214026 | 11 | 112 | 1.6 | 1.6 | 0.00 | 0.71 | 0.00 | 77 | 1009.6 |
| 20260510213526 | 11 | 112 | 0.0 | 1.6 | 0.00 | 0.71 | 0.00 | 76 | 1009.4 |
| 20260510213025 | 12 | 112 | 1.6 | 3.2 | 0.00 | 1.02 | 0.00 | 76 | 1009.3 |
| 20260510212525 | 12 | 112 | 1.6 | 3.2 | 0.00 | 1.02 | 0.00 | 74 | 1009.4 |
| 20260510212025 | 12 | 112 | 0.0 | 0.0 | 0.00 | 1.02 | 0.00 | 74 | 1009.3 |
| 20260510211524 | 12 | 112 | 0.0 | 0.0 | 0.00 | 1.02 | 0.00 | 74 | 1009.2 |
| 20260510211024 | 12 | 112 | 0.0 | 0.0 | 0.00 | 1.02 | 0.00 | 74 | 1009.1 |
| 20260510210524 | 12 | 112 | 0.0 | 1.6 | 0.00 | 1.02 | 0.00 | 74 | 1009.0 |
| 20260510210024 | 12 | 112 | 0.0 | 3.2 | 0.00 | 1.02 | 0.00 | 74 | 1009.1 |
| 20260510205523 | 12 | 112 | 3.2 | 3.2 | 0.00 | 1.02 | 0.00 | 74 | 1009.1 |
| 20260510205023 | 12 | 90 | 0.0 | 3.2 | 0.00 | 1.02 | 0.00 | 73 | 1009.1 |
| 20260510204523 | 12 | 67 | 0.0 | 3.2 | 0.00 | 1.02 | 0.00 | 73 | 1009.0 |
| 20260510204022 | 12 | 67 | 3.2 | 3.2 | 0.00 | 1.02 | 0.00 | 74 | 1009.1 |
| 20260510203522 | 12 | 67 | 3.2 | 4.8 | 0.00 | 1.02 | 0.00 | 74 | 1009.2 |
| 20260510203022 | 12 | 135 | 3.2 | 3.2 | 0.00 | 1.17 | 0.00 | 73 | 1009.1 |
| 20260510202521 | 13 | 135 | 0.0 | 1.6 | 0.00 | 1.17 | 0.00 | 73 | 1009.0 |
| 20260510202021 | 13 | 135 | 0.0 | 3.2 | 0.00 | 1.17 | 0.00 | 73 | 1009.1 |
| 20260510201521 | 13 | 135 | 1.6 | 1.6 | 0.00 | 1.17 | 0.00 | 73 | 1009.1 |
| 20260510201021 | 13 | 135 | 0.0 | 4.8 | 0.00 | 1.17 | 0.00 | 73 | 1009.1 |
| 20260510200520 | 13 | 157 | 1.6 | 6.4 | 0.00 | 1.17 | 0.00 | 72 | 1009.1 |
| 20260510200020 | 13 | 202 | 0.0 | 3.2 | 0.00 | 1.17 | 0.00 | 71 | 1009.1 |
| 20260510195520 | 13 | 202 | 0.0 | 0.0 | 0.00 | 1.17 | 0.00 | 71 | 1009.1 |
| 20260510195019 | 13 | 202 | 0.0 | 1.6 | 0.00 | 1.17 | 0.00 | 70 | 1009.1 |
| 20260510194519 | 13 | 202 | 0.0 | 4.8 | 0.00 | 1.17 | 0.00 | 70 | 1009.1 |
| 20260510194019 | 14 | 202 | 1.6 | 4.8 | 0.00 | 1.17 | 0.00 | 70 | 1009.1 |
| 20260510193519 | 14 | 202 | 0.0 | 4.8 | 0.00 | 1.17 | 0.00 | 70 | 1009.1 |
| 20260510193018 | 14 | 202 | 1.6 | 3.2 | 0.00 | 1.40 | 0.00 | 69 | 1009.1 |
| 20260510192518 | 14 | 202 | 0.0 | 3.2 | 0.00 | 1.40 | 0.00 | 69 | 1009.1 |
| 20260510192018 | 14 | 202 | 3.2 | 3.2 | 0.00 | 1.40 | 0.00 | 69 | 1009.1 |
| 20260510191517 | 15 | 202 | 1.6 | 6.4 | 0.00 | 1.40 | 0.00 | 69 | 1009.1 |
| 20260510191017 | 15 | 180 | 0.0 | 3.2 | 0.00 | 1.40 | 0.00 | 68 | 1009.1 |
| 20260510190517 | 15 | 180 | 0.0 | 4.8 | 0.00 | 1.40 | 0.00 | 68 | 1009.1 |
| 20260510190016 | 15 | 202 | 1.6 | 4.8 | 0.00 | 1.40 | 0.00 | 68 | 1009.1 |
| 20260510185516 | 15 | 202 | 0.0 | 3.2 | 0.00 | 1.40 | 0.00 | 67 | 1009.2 |
| 20260510185016 | 15 | 202 | 1.6 | 1.6 | 0.00 | 1.40 | 0.00 | 67 | 1009.1 |
| 20260510184516 | 15 | 202 | 0.0 | 6.4 | 0.00 | 1.40 | 0.00 | 66 | 1009.1 |
| 20260510184015 | 15 | 202 | 0.0 | 3.2 | 0.00 | 1.40 | 0.00 | 66 | 1009.1 |
| 20260510183515 | 16 | 202 | 1.6 | 3.2 | 0.00 | 1.40 | 0.00 | 65 | 1009.2 |
| 20260510183015 | 16 | 202 | 0.0 | 1.6 | 0.00 | 1.50 | 0.00 | 64 | 1009.2 |
| 20260510182514 | 16 | 202 | 0.0 | 1.6 | 0.00 | 1.50 | 0.00 | 63 | 1009.3 |
| 20260510182014 | 16 | 202 | 0.0 | 0.0 | 0.00 | 1.50 | 0.00 | 63 | 1009.3 |
| 20260510181514 | 16 | 202 | 0.0 | 1.6 | 0.00 | 1.50 | 0.00 | 63 | 1009.3 |
| 20260510181014 | 17 | 202 | 0.0 | 4.8 | 0.00 | 1.50 | 0.00 | 63 | 1009.3 |
| 20260510180513 | 17 | 202 | 1.6 | 3.2 | 0.00 | 1.50 | 0.00 | 63 | 1009.3 |
| 20260510180013 | 17 | 202 | 0.0 | 8.0 | 0.00 | 1.50 | 0.00 | 63 | 1009.3 |
| 20260510175513 | 17 | 202 | 3.2 | 9.7 | 0.00 | 1.50 | 0.00 | 62 | 1009.3 |
| 20260510175012 | 17 | 202 | 1.6 | 6.4 | 0.00 | 1.50 | 0.00 | 62 | 1009.4 |
| 20260510174512 | 17 | 225 | 4.8 | 8.0 | 0.00 | 1.50 | 0.00 | 62 | 1009.3 |
| 20260510174012 | 17 | 225 | 0.0 | 4.8 | 0.00 | 1.50 | 0.00 | 62 | 1009.4 |
| 20260510173511 | 17 | 225 | 1.6 | 4.8 | 0.00 | 1.50 | 0.00 | 62 | 1009.3 |
| 20260510173011 | 17 | 225 | 4.8 | 12.9 | 0.00 | 1.50 | 0.00 | 62 | 1009.4 |
| 20260510172511 | 17 | 247 | 3.2 | 6.4 | 0.00 | 1.50 | 0.00 | 63 | 1009.3 |
| 20260510172011 | 17 | 225 | 3.2 | 6.4 | 0.00 | 1.50 | 0.00 | 62 | 1009.3 |
| 20260510171510 | 17 | 247 | 4.8 | 11.3 | 0.00 | 1.50 | 0.00 | 62 | 1009.3 |
| 20260510171010 | 17 | 225 | 6.4 | 14.5 | 0.00 | 1.50 | 0.00 | 61 | 1009.3 |
| 20260510170510 | 18 | 225 | 9.7 | 12.9 | 0.00 | 1.50 | 0.00 | 61 | 1009.3 |
| 20260510170009 | 18 | 247 | 9.7 | 14.5 | 0.00 | 1.50 | 0.00 | 61 | 1009.3 |
| 20260510165509 | 18 | 225 | 4.8 | 11.3 | 0.00 | 1.50 | 0.00 | 61 | 1009.3 |
| 20260510165009 | 18 | 292 | 6.4 | 9.7 | 0.00 | 1.50 | 0.00 | 60 | 1009.3 |
| 20260510164509 | 18 | 225 | 9.7 | 11.3 | 0.00 | 1.50 | 0.00 | 60 | 1009.4 |
| 20260510164008 | 18 | 292 | 3.2 | 12.9 | 0.00 | 1.50 | 0.00 | 60 | 1009.3 |
| 20260510163508 | 18 | 247 | 8.0 | 12.9 | 0.00 | 1.50 | 0.00 | 60 | 1009.4 |
| 20260510163008 | 18 | 292 | 1.6 | 11.3 | 0.00 | 1.50 | 0.00 | 60 | 1009.4 |
| 20260510162507 | 18 | 247 | 4.8 | 12.9 | 0.00 | 1.50 | 0.00 | 60 | 1009.4 |
| 20260510162007 | 18 | 292 | 6.4 | 8.0 | 0.00 | 1.50 | 0.00 | 59 | 1009.4 |
| 20260510161507 | 18 | 292 | 4.8 | 14.5 | 0.00 | 1.50 | 0.00 | 59 | 1009.4 |
| 20260510161006 | 19 | 247 | 4.8 | 17.7 | 0.00 | 1.50 | 0.00 | 58 | 1009.4 |
| 20260510160506 | 19 | 315 | 4.8 | 16.1 | 0.00 | 1.50 | 0.00 | 58 | 1009.4 |
| 20260510160006 | 19 | 315 | 3.2 | 14.5 | 0.00 | 1.50 | 0.00 | 57 | 1009.4 |
| 20260510155506 | 19 | 292 | 9.7 | 17.7 | 0.00 | 1.50 | 0.00 | 56 | 1009.4 |
| 20260510155005 | 20 | 315 | 9.7 | 17.7 | 0.00 | 1.50 | 0.00 | 55 | 1009.4 |
| 20260510154505 | 20 | 292 | 9.7 | 14.5 | 0.00 | 1.50 | 0.00 | 54 | 1009.4 |
| 20260510154005 | 20 | 292 | 6.4 | 16.1 | 0.00 | 1.50 | 0.00 | 54 | 1009.4 |
| 20260510153504 | 21 | 315 | 6.4 | 22.5 | 0.00 | 1.50 | 0.00 | 52 | 1009.4 |
| 20260510153004 | 21 | 292 | 4.8 | 19.3 | 0.00 | 1.50 | 0.00 | 50 | 1009.4 |
| 20260510152504 | 22 | 292 | 19.3 | 19.3 | 0.00 | 1.50 | 0.00 | 49 | 1009.4 |
| 20260510152004 | 23 | 292 | 12.9 | 16.1 | 0.00 | 1.50 | 0.00 | 47 | 1009.4 |
| 20260510151503 | 23 | 292 | 4.8 | 20.9 | 0.00 | 1.50 | 0.00 | 44 | 1009.4 |
| 20260510151003 | 25 | 292 | 3.2 | 14.5 | 0.00 | 1.50 | 0.00 | 43 | 1009.4 |
| 20260510150503 | 26 | 292 | 4.8 | 11.3 | 0.00 | 1.50 | 0.00 | 42 | 1009.4 |
| 20260510150002 | 26 | 247 | 11.3 | 17.7 | 0.00 | 1.50 | 0.00 | 42 | 1009.4 |
| 20260510145502 | 26 | 292 | 12.9 | 19.3 | 0.00 | 1.50 | 0.00 | 42 | 1009.4 |
| 20260510145002 | 25 | 292 | 8.0 | 14.5 | 0.00 | 1.50 | 0.00 | 43 | 1009.4 |
| 20260510144501 | 25 | 292 | 9.7 | 17.7 | 0.00 | 1.50 | 0.00 | 42 | 1009.4 |
| 20260510144001 | 25 | 292 | 6.4 | 12.9 | 0.00 | 1.50 | 0.00 | 43 | 1009.3 |
| 20260510143501 | 25 | 292 | 6.4 | 14.5 | 0.00 | 1.50 | 0.00 | 42 | 1009.3 |
| 20260510143001 | 24 | 292 | 8.0 | 17.7 | 0.00 | 1.50 | 0.00 | 43 | 1009.3 |
| 20260510142500 | 24 | 247 | 9.7 | 14.5 | 0.00 | 1.50 | 0.00 | 44 | 1009.3 |
| 20260510142000 | 23 | 292 | 8.0 | 12.9 | 0.00 | 1.50 | 0.00 | 45 | 1009.3 |
| 20260510141500 | 23 | 292 | 9.7 | 20.9 | 0.00 | 1.50 | 0.00 | 45 | 1009.4 |
| 20260510140959 | 22 | 292 | 12.9 | 14.5 | 0.00 | 1.50 | 0.00 | 47 | 1009.3 |
| 20260510140459 | 22 | 292 | 3.2 | 16.1 | 0.00 | 1.50 | 0.00 | 45 | 1009.3 |
| 20260510135959 | 22 | 292 | 8.0 | 17.7 | 0.00 | 1.50 | 0.00 | 46 | 1009.3 |
| 20260510135459 | 22 | 292 | 12.9 | 19.3 | 0.00 | 1.50 | 0.00 | 46 | 1009.3 |
| 20260510134958 | 22 | 292 | 19.3 | 19.3 | 0.00 | 1.50 | 0.00 | 47 | 1009.4 |
| 20260510134458 | 22 | 292 | 6.4 | 19.3 | 0.00 | 1.50 | 0.00 | 47 | 1009.3 |
| 20260510133958 | 22 | 292 | 3.2 | 14.5 | 0.00 | 1.50 | 0.00 | 48 | 1009.3 |
| 20260510133457 | 22 | 292 | 6.4 | 14.5 | 0.00 | 1.50 | 0.00 | 48 | 1009.3 |
| 20260510132957 | 22 | 292 | 4.8 | 29.0 | 0.00 | 1.55 | 0.00 | 47 | 1009.2 |
| 20260510132457 | 22 | 292 | 29.0 | 29.0 | 0.00 | 1.55 | 0.00 | 50 | 1009.3 |
| 20260510131957 | 22 | 292 | 3.2 | 12.9 | 0.00 | 1.55 | 0.00 | 50 | 1009.3 |
| 20260510131456 | 22 | 292 | 3.2 | 9.7 | 0.00 | 1.55 | 0.00 | 50 | 1009.3 |
| 20260510130956 | 22 | 315 | 8.0 | 14.5 | 0.00 | 1.55 | 0.00 | 49 | 1009.3 |
| 20260510130456 | 22 | 292 | 3.2 | 14.5 | 0.00 | 1.55 | 0.00 | 48 | 1009.3 |
| 20260510125955 | 22 | 292 | 4.8 | 6.4 | 0.00 | 1.55 | 0.00 | 49 | 1009.3 |
| 20260510125455 | 22 | 292 | 3.2 | 8.0 | 0.00 | 1.55 | 0.00 | 49 | 1009.3 |
| 20260510124955 | 23 | 315 | 6.4 | 14.5 | 0.00 | 1.55 | 0.00 | 48 | 1009.3 |
| 20260510124454 | 23 | 292 | 8.0 | 11.3 | 0.00 | 1.55 | 0.00 | 49 | 1009.2 |
| 20260510123954 | 23 | 292 | 3.2 | 12.9 | 0.00 | 1.55 | 0.00 | 49 | 1009.3 |
| 20260510123454 | 23 | 292 | 3.2 | 12.9 | 0.00 | 1.55 | 0.00 | 49 | 1009.2 |
| 20260510122954 | 23 | 225 | 9.7 | 14.5 | 0.00 | 1.55 | 0.00 | 50 | 1009.2 |
| 20260510122453 | 23 | 292 | 4.8 | 16.1 | 0.00 | 1.55 | 0.00 | 51 | 1009.2 |
| 20260510121953 | 23 | 202 | 16.1 | 16.1 | 0.00 | 1.55 | 0.00 | 51 | 1009.2 |
| 20260510121453 | 22 | 292 | 6.4 | 17.7 | 0.00 | 1.55 | 0.00 | 50 | 1009.2 |
| 20260510120952 | 22 | 247 | 12.9 | 16.1 | 0.00 | 1.55 | 0.00 | 50 | 1009.2 |
| 20260510120452 | 22 | 292 | 6.4 | 12.9 | 0.00 | 1.55 | 0.00 | 50 | 1009.4 |
| 20260510115952 | 22 | 292 | 3.2 | 12.9 | 0.00 | 1.55 | 0.00 | 50 | 1009.4 |
| 20260510115452 | 23 | 337 | 6.4 | 9.7 | 0.00 | 1.55 | 0.00 | 50 | 1009.5 |
| 20260510114951 | 23 | 157 | 0.0 | 19.3 | 0.00 | 1.55 | 0.00 | 51 | 1009.4 |
| 20260510114451 | 23 | 225 | 9.7 | 14.5 | 0.00 | 1.55 | 0.00 | 50 | 1009.7 |
| 20260510113951 | 23 | 202 | 8.0 | 14.5 | 0.00 | 1.55 | 0.00 | 52 | 1009.7 |
| 20260510113450 | 23 | 292 | 9.7 | 12.9 | 0.00 | 1.55 | 0.00 | 51 | 1010.1 |
| 20260510112950 | 23 | 292 | 11.3 | 14.5 | 0.00 | 2.01 | 0.00 | 53 | 1010.2 |
| 20260510112450 | 22 | 292 | 3.2 | 19.3 | 0.00 | 2.01 | 0.00 | 52 | 1010.2 |
| 20260510111949 | 22 | 292 | 6.4 | 9.7 | 0.00 | 2.01 | 0.00 | 53 | 1010.2 |
| 20260510111449 | 22 | 225 | 3.2 | 11.3 | 0.00 | 2.01 | 0.00 | 54 | 1010.3 |
| 20260510110949 | 22 | 292 | 6.4 | 16.1 | 0.00 | 2.01 | 0.00 | 54 | 1010.3 |
| 20260510110449 | 22 | 247 | 8.0 | 12.9 | 0.00 | 2.01 | 0.00 | 52 | 1010.3 |
| 20260510105948 | 22 | 292 | 4.8 | 14.5 | 0.00 | 2.01 | 0.00 | 52 | 1010.5 |
| 20260510105448 | 22 | 292 | 0.0 | 20.9 | 0.00 | 2.01 | 0.00 | 53 | 1010.7 |
| 20260510104948 | 22 | 315 | 8.0 | 11.3 | 0.00 | 2.01 | 0.00 | 54 | 1010.7 |
| 20260510104447 | 23 | 292 | 11.3 | 17.7 | 0.00 | 2.01 | 0.00 | 54 | 1010.8 |
| 20260510103947 | 22 | 292 | 1.6 | 14.5 | 0.00 | 2.01 | 0.00 | 58 | 1010.9 |
| 20260510103447 | 22 | 292 | 0.0 | 16.1 | 0.00 | 2.01 | 0.00 | 58 | 1011.0 |
| 20260510102947 | 22 | 202 | 9.7 | 12.9 | 0.00 | 2.06 | 0.00 | 60 | 1011.0 |
| 20260510102446 | 22 | 292 | 4.8 | 12.9 | 0.00 | 2.06 | 0.00 | 60 | 1011.2 |
| 20260510101946 | 21 | 292 | 3.2 | 24.1 | 0.00 | 2.06 | 0.00 | 61 | 1011.2 |
| 20260510101446 | 21 | 247 | 14.5 | 16.1 | 0.00 | 2.06 | 0.00 | 60 | 1011.2 |
| 20260510100945 | 21 | 292 | 4.8 | 19.3 | 0.00 | 2.06 | 0.00 | 60 | 1011.4 |
| 20260510100445 | 21 | 292 | 8.0 | 19.3 | 0.00 | 2.06 | 0.00 | 61 | 1011.3 |
| 20260510095945 | 21 | 315 | 6.4 | 11.3 | 0.00 | 2.06 | 0.00 | 62 | 1011.3 |
| 20260510095445 | 21 | 292 | 11.3 | 19.3 | 0.00 | 2.06 | 0.00 | 61 | 1011.4 |
| 20260510094944 | 21 | 292 | 9.7 | 16.1 | 0.00 | 2.06 | 0.00 | 63 | 1011.4 |
| 20260510094444 | 20 | 315 | 9.7 | 9.7 | 0.00 | 2.06 | 0.00 | 65 | 1011.5 |
| 20260510093944 | 20 | 292 | 3.2 | 16.1 | 0.00 | 2.06 | 0.00 | 66 | 1011.5 |
| 20260510093443 | 20 | 292 | 3.2 | 9.7 | 0.00 | 2.06 | 0.00 | 66 | 1011.6 |
| 20260510092943 | 20 | 337 | 3.2 | 14.5 | 0.00 | 2.16 | 0.00 | 65 | 1011.7 |
| 20260510092443 | 20 | 292 | 6.4 | 14.5 | 0.00 | 2.16 | 0.00 | 66 | 1011.7 |
| 20260510091942 | 20 | 315 | 3.2 | 12.9 | 0.00 | 2.16 | 0.00 | 68 | 1011.8 |
| 20260510091442 | 20 | 292 | 6.4 | 12.9 | 0.00 | 2.16 | 0.00 | 67 | 1011.9 |
| 20260510090942 | 19 | 292 | 12.9 | 14.5 | 0.00 | 2.16 | 0.00 | 68 | 1011.9 |
| 20260510090442 | 19 | 337 | 0.0 | 9.7 | 0.00 | 2.16 | 0.00 | 68 | 1011.9 |
| 20260510085941 | 18 | 292 | 6.4 | 12.9 | 0.00 | 2.16 | 0.00 | 69 | 1012.0 |
| 20260510085441 | 18 | 292 | 3.2 | 16.1 | 0.00 | 2.16 | 0.00 | 69 | 1012.0 |
| 20260510084941 | 18 | 292 | 3.2 | 14.5 | 0.00 | 2.16 | 0.00 | 69 | 1012.0 |
| 20260510084440 | 18 | 292 | 1.6 | 16.1 | 0.00 | 2.16 | 0.00 | 70 | 1012.1 |
| 20260510083940 | 19 | 292 | 11.3 | 16.1 | 0.00 | 2.16 | 0.00 | 69 | 1012.1 |
| 20260510083440 | 20 | 247 | 6.4 | 19.3 | 0.00 | 2.16 | 0.00 | 69 | 1012.0 |
| 20260510082940 | 19 | 292 | 3.2 | 12.9 | 0.00 | 2.21 | 0.00 | 71 | 1012.1 |
| 20260510082439 | 19 | 292 | 4.8 | 12.9 | 0.00 | 2.21 | 0.00 | 72 | 1012.1 |
| 20260510081939 | 19 | 292 | 0.0 | 16.1 | 0.00 | 2.21 | 0.00 | 73 | 1012.1 |
| 20260510081439 | 18 | 292 | 8.0 | 12.9 | 0.00 | 2.21 | 0.00 | 74 | 1012.1 |
| 20260510080938 | 18 | 292 | 3.2 | 14.5 | 0.00 | 2.21 | 0.00 | 75 | 1012.0 |
| 20260510080438 | 18 | 292 | 1.6 | 8.0 | 0.00 | 2.21 | 0.00 | 76 | 1011.9 |
| 20260510075938 | 18 | 292 | 1.6 | 11.3 | 0.00 | 2.21 | 0.00 | 76 | 1011.9 |
| 20260510075439 | 18 | 292 | 0.0 | 9.7 | 0.00 | 2.21 | 0.00 | 75 | 1012.0 |
| 20260510074937 | 18 | 292 | 6.4 | 14.5 | 0.00 | 2.21 | 0.00 | 75 | 1012.2 |
| 20260510074437 | 18 | 315 | 11.3 | 17.7 | 0.00 | 2.21 | 0.00 | 76 | 1012.1 |
| 20260510073937 | 18 | 292 | 9.7 | 14.5 | 0.00 | 2.21 | 0.00 | 78 | 1012.1 |
| 20260510073436 | 18 | 292 | 6.4 | 11.3 | 0.00 | 2.21 | 0.00 | 81 | 1012.1 |
| 20260510072936 | 17 | 292 | 1.6 | 9.7 | 0.00 | 2.21 | 0.00 | 82 | 1012.1 |
| 20260510072436 | 17 | 292 | 4.8 | 9.7 | 0.00 | 2.21 | 0.00 | 82 | 1012.1 |
| 20260510071935 | 17 | 292 | 0.0 | 9.7 | 0.00 | 2.21 | 0.00 | 83 | 1012.1 |
| 20260510071435 | 16 | 292 | 4.8 | 6.4 | 0.00 | 2.21 | 0.00 | 85 | 1012.1 |
| 20260510070935 | 16 | 315 | 1.6 | 9.7 | 0.00 | 2.21 | 0.00 | 86 | 1012.2 |
| 20260510070435 | 15 | 292 | 3.2 | 9.7 | 0.00 | 2.21 | 0.00 | 86 | 1012.2 |
| 20260510065934 | 15 | 292 | 4.8 | 4.8 | 0.00 | 2.21 | 0.00 | 86 | 1012.1 |
| 20260510065434 | 15 | 292 | 1.6 | 6.4 | 0.00 | 2.21 | 0.00 | 86 | 1012.2 |
| 20260510064934 | 15 | 292 | 0.0 | 8.0 | 0.00 | 2.21 | 0.00 | 87 | 1012.2 |
| 20260510064433 | 15 | 292 | 0.0 | 3.2 | 0.00 | 2.21 | 0.00 | 88 | 1012.1 |
| 20260510063933 | 15 | 292 | 0.0 | 1.6 | 0.00 | 2.21 | 0.00 | 89 | 1012.1 |
| 20260510063433 | 15 | 292 | 0.0 | 3.2 | 0.00 | 2.21 | 0.00 | 90 | 1012.2 |
| 20260510062932 | 15 | 292 | 3.2 | 3.2 | 0.00 | 2.21 | 0.00 | 91 | 1012.2 |
| 20260510062432 | 15 | 292 | 1.6 | 3.2 | 0.00 | 2.21 | 0.00 | 91 | 1012.3 |
| 20260510061932 | 15 | 292 | 0.0 | 4.8 | 0.00 | 2.21 | 0.00 | 92 | 1012.3 |
| 20260510061432 | 14 | 315 | 3.2 | 3.2 | 0.00 | 2.21 | 0.00 | 92 | 1012.3 |
| 20260510060931 | 14 | 315 | 0.0 | 3.2 | 0.00 | 2.21 | 0.00 | 92 | 1012.3 |
| 20260510060431 | 13 | 315 | 0.0 | 3.2 | 0.00 | 2.21 | 0.00 | 92 | 1012.4 |
| 20260510055931 | 13 | 315 | 0.0 | 4.8 | 0.00 | 2.21 | 0.00 | 93 | 1012.3 |
| 20260510055430 | 13 | 315 | 4.8 | 8.0 | 0.00 | 2.21 | 0.00 | 93 | 1012.3 |
| 20260510054930 | 13 | 315 | 8.0 | 8.0 | 0.00 | 2.21 | 0.00 | 93 | 1012.3 |
| 20260510054430 | 13 | 315 | 6.4 | 6.4 | 0.00 | 2.21 | 0.00 | 93 | 1012.4 |
| 20260510053930 | 13 | 292 | 0.0 | 0.0 | 0.00 | 2.21 | 0.00 | 93 | 1012.4 |
| 20260510053429 | 13 | 292 | 0.0 | 3.2 | 0.00 | 2.21 | 0.00 | 93 | 1012.4 |
| 20260510052929 | 12 | 292 | 0.0 | 0.0 | 0.00 | 2.21 | 0.00 | 93 | 1012.5 |
| 20260510052429 | 12 | 292 | 0.0 | 0.0 | 0.00 | 2.21 | 0.00 | 93 | 1012.4 |
| 20260510051928 | 12 | 292 | 0.0 | 3.2 | 0.00 | 2.21 | 0.00 | 92 | 1012.4 |
| 20260510051428 | 12 | 292 | 0.0 | 0.0 | 0.00 | 2.21 | 0.00 | 92 | 1012.4 |
| 20260510050928 | 11 | 292 | 0.0 | 1.6 | 0.00 | 2.21 | 0.00 | 92 | 1012.4 |
| 20260510050428 | 11 | 292 | 0.0 | 0.0 | 0.05 | 2.21 | 0.00 | 92 | 1012.5 |
| 20260510045927 | 11 | 292 | 0.0 | 1.6 | 0.05 | 2.21 | 0.00 | 92 | 1012.5 |
| 20260510045427 | 11 | 292 | 0.0 | 3.2 | 0.05 | 2.21 | 0.00 | 92 | 1012.6 |
| 20260510044927 | 11 | 292 | 1.6 | 3.2 | 0.05 | 2.21 | 0.00 | 92 | 1012.5 |
| 20260510044426 | 11 | 292 | 3.2 | 4.8 | 0.05 | 2.21 | 0.00 | 92 | 1012.5 |
| 20260510043926 | 11 | 292 | 0.0 | 6.4 | 0.05 | 2.21 | 0.00 | 92 | 1012.5 |
| 20260510043426 | 11 | 292 | 1.6 | 1.6 | 0.05 | 2.21 | 0.00 | 92 | 1012.6 |
| 20260510042925 | 11 | 292 | 0.0 | 4.8 | 0.05 | 2.21 | 0.00 | 92 | 1012.6 |
| 20260510042425 | 11 | 292 | 0.0 | 4.8 | 0.10 | 2.21 | 0.00 | 92 | 1012.5 |
| 20260510041925 | 11 | 315 | 0.0 | 3.2 | 0.10 | 2.21 | 0.00 | 92 | 1012.5 |
| 20260510041425 | 11 | 315 | 0.0 | 6.4 | 0.10 | 2.21 | 0.00 | 92 | 1012.5 |
| 20260510040924 | 11 | 315 | 6.4 | 9.7 | 0.10 | 2.21 | 0.00 | 92 | 1012.4 |
| 20260510040424 | 11 | 292 | 8.0 | 8.0 | 0.05 | 2.16 | 0.00 | 92 | 1012.3 |
| 20260510035924 | 11 | 292 | 4.8 | 4.8 | 0.10 | 2.16 | 0.00 | 92 | 1012.3 |
| 20260510035423 | 11 | 292 | 3.2 | 6.4 | 0.10 | 2.16 | 0.00 | 92 | 1012.2 |
| 20260510034923 | 11 | 292 | 3.2 | 6.4 | 0.10 | 2.16 | 0.00 | 92 | 1012.1 |
| 20260510034423 | 11 | 292 | 3.2 | 4.8 | 0.10 | 2.16 | 0.00 | 92 | 1012.2 |
| 20260510033922 | 11 | 292 | 3.2 | 4.8 | 0.10 | 2.16 | 0.00 | 92 | 1012.1 |
| 20260510033422 | 11 | 292 | 3.2 | 3.2 | 0.10 | 2.16 | 0.00 | 92 | 1012.1 |
| 20260510032922 | 11 | 292 | 1.6 | 1.6 | 0.10 | 2.16 | 0.00 | 92 | 1012.0 |
| 20260510032422 | 11 | 292 | 0.0 | 3.2 | 0.05 | 2.11 | 0.00 | 92 | 1012.0 |
| 20260510031921 | 11 | 292 | 0.0 | 1.6 | 0.05 | 2.11 | 0.00 | 92 | 1011.9 |
| 20260510031421 | 11 | 292 | 0.0 | 0.0 | 0.05 | 2.11 | 0.00 | 92 | 1011.8 |
| 20260510030921 | 11 | 292 | 0.0 | 0.0 | 0.10 | 2.11 | 0.00 | 92 | 1011.8 |
| 20260510030420 | 11 | 292 | 0.0 | 0.0 | 0.05 | 2.06 | 0.00 | 92 | 1011.8 |
| 20260510025920 | 11 | 292 | 0.0 | 1.6 | 0.05 | 2.06 | 0.00 | 92 | 1011.8 |
| 20260510025420 | 11 | 292 | 1.6 | 3.2 | 0.10 | 2.06 | 0.00 | 92 | 1011.8 |
| 20260510024920 | 11 | 292 | 1.6 | 3.2 | 0.10 | 2.06 | 0.00 | 92 | 1011.8 |
| 20260510024419 | 11 | 292 | 1.6 | 3.2 | 0.10 | 2.06 | 0.00 | 92 | 1011.8 |
| 20260510023919 | 11 | 292 | 0.0 | 4.8 | 0.10 | 2.06 | 0.00 | 92 | 1011.8 |
| 20260510023419 | 11 | 292 | 0.0 | 4.8 | 0.15 | 2.06 | 0.00 | 92 | 1011.7 |
| 20260510022918 | 11 | 292 | 1.6 | 4.8 | 0.15 | 2.06 | 0.00 | 92 | 1011.7 |
| 20260510022418 | 11 | 292 | 4.8 | 8.0 | 0.20 | 2.06 | 0.00 | 92 | 1011.6 |
| 20260510021918 | 11 | 202 | 0.0 | 8.0 | 0.20 | 2.06 | 0.00 | 92 | 1011.6 |
| 20260510021417 | 11 | 292 | 1.6 | 3.2 | 0.20 | 2.06 | 0.00 | 92 | 1011.8 |
| 20260510020917 | 11 | 292 | 1.6 | 8.0 | 0.20 | 2.01 | 0.00 | 92 | 1011.7 |
| 20260510020417 | 11 | 292 | 1.6 | 9.7 | 0.20 | 2.01 | 0.00 | 92 | 1011.8 |
| 20260510015917 | 11 | 292 | 4.8 | 8.0 | 0.20 | 2.01 | 0.00 | 92 | 1011.8 |
| 20260510015416 | 11 | 292 | 8.0 | 9.7 | 0.15 | 1.96 | 0.00 | 92 | 1011.9 |
| 20260510014916 | 11 | 292 | 6.4 | 8.0 | 0.20 | 1.96 | 0.00 | 92 | 1011.9 |
| 20260510014416 | 11 | 292 | 3.2 | 9.7 | 0.20 | 1.96 | 0.00 | 92 | 1011.8 |
| 20260510013915 | 11 | 292 | 9.7 | 12.9 | 0.15 | 1.91 | 0.00 | 92 | 1011.8 |
| 20260510013415 | 11 | 292 | 4.8 | 11.3 | 0.20 | 1.91 | 0.00 | 92 | 1011.8 |
| 20260510012915 | 11 | 292 | 6.4 | 11.3 | 0.20 | 1.91 | 0.00 | 92 | 1011.8 |
| 20260510012415 | 11 | 292 | 1.6 | 11.3 | 0.15 | 1.85 | 0.00 | 92 | 1011.8 |
| 20260510011914 | 11 | 292 | 4.8 | 9.7 | 0.15 | 1.85 | 0.00 | 92 | 1011.8 |
| 20260510011414 | 11 | 292 | 1.6 | 8.0 | 0.10 | 1.80 | 0.00 | 92 | 1011.7 |
| 20260510010914 | 11 | 292 | 1.6 | 9.7 | 0.10 | 1.80 | 0.00 | 92 | 1011.7 |
| 20260510010413 | 11 | 292 | 4.8 | 11.3 | 0.15 | 1.80 | 0.00 | 92 | 1011.7 |
| 20260510005913 | 11 | 292 | 3.2 | 11.3 | 0.15 | 1.80 | 0.00 | 92 | 1011.7 |
| 20260510005413 | 11 | 292 | 4.8 | 14.5 | 0.15 | 1.80 | 0.00 | 92 | 1011.7 |
| 20260510004912 | 11 | 247 | 14.5 | 16.1 | 0.15 | 1.75 | 0.00 | 92 | 1011.6 |
| 20260510004412 | 11 | 292 | 4.8 | 12.9 | 0.15 | 1.75 | 0.00 | 92 | 1011.6 |
| 20260510003912 | 11 | 315 | 3.2 | 12.9 | 0.10 | 1.70 | 0.00 | 92 | 1011.6 |
| 20260510003412 | 11 | 315 | 6.4 | 9.7 | 0.10 | 1.70 | 0.00 | 92 | 1011.5 |
| 20260510002911 | 11 | 247 | 6.4 | 12.9 | 0.10 | 1.70 | 0.00 | 92 | 1011.5 |
| 20260510002411 | 11 | 292 | 3.2 | 16.1 | 0.10 | 1.70 | 0.00 | 92 | 1011.5 |
| 20260510001911 | 11 | 315 | 4.8 | 12.9 | 0.10 | 1.70 | 0.00 | 92 | 1011.6 |
| 20260510001410 | 11 | 247 | 6.4 | 11.3 | 0.10 | 1.70 | 0.00 | 92 | 1011.5 |
| 20260510000910 | 11 | 315 | 4.8 | 12.9 | 0.10 | 1.65 | 0.00 | 92 | 1011.5 |
| 20260510000411 | 11 | 225 | 6.4 | 8.0 | 0.10 | 1.65 | 0.00 | 92 | 1011.4 |
| 20260509235910 | 11 | 247 | 8.0 | 8.0 | 0.10 | 1.65 | 0.00 | 92 | 1011.4 |
| 20260509235409 | 11 | 292 | 1.6 | 6.4 | 0.10 | 1.65 | 0.00 | 92 | 1011.5 |
| 20260509234909 | 11 | 292 | 1.6 | 6.4 | 0.05 | 1.60 | 0.00 | 92 | 1011.6 |
| 20260509234409 | 11 | 292 | 0.0 | 14.5 | 0.05 | 1.60 | 0.00 | 92 | 1011.6 |